STARLINK-34449, 64465

Orbit data source: Space-Track

STARLINK-34449, 64465 is a payload satellite owned by SpaceX/Seattle (US) in LEO that was launched on Wed, 18 Jun 2025 UTC via an FALCON 9 launch vehicle from the Air Force Eastern Test Range (AFETR). Payload-class satellites include a variety of spacecraft equipped with specific instruments for various scientific and technological missions. These include communications satellites like Starlink; space stations such as the ISS; scientific satellites like the Hubble; Earth observation satellites from companies like Planet Labs, Umbra, and HawkEye 360; GPS; miniature CubeSats for education and research; and military/defense satellites.

Loading next visibility...
Identifier
64465, 2025-130AD
Orbit
LEO
Country
Flag of USUS
Related business
Manufacturer
SpaceX/Seattle
Mission
Operational Commercial Communications
Bus & Motor
STARLINK V2MO, Unknown motor
Mass
575 kg wet, ~530 kg dry
Launch date (UTC)
2025-06-18 (1 year ago)
Launch vehicle
FALCON 9
Launch site
Air Force Eastern Test Range (AFETR)
Object type
Payload
Rocket body
Debris
Shape & HBR
Box + 2 Pan, 17.7 m
Radar Cross Section
36.964 m², Large (>1 m²)

Expand to show TLE details & history
Last TLE update: 23 hours ago

TLE from 23 hours ago
0 STARLINK-34449
1 64465U 25130AD  26170.87465495  .00019565  00000-0  58857-3 0  9992
2 64465  53.1597 332.7863 0001118  82.3382 277.7748 15.34404939 56360
Epoch: 2026-06-19T20:59Z
TLE epoch observation values (Epoch: 2026-06-19T20:59:30.187Z)
Latitude
0.00001°
Longitude
109.81316°
Altitude
463.486 km
Speed
7.636 km/s
True Right ascension
22h 11m 08s
True Declination
0° 00' 00"
Sunlit
Object was in full shadow at epoch
Visualization orbit readout
Latitude
Unknown
Longitude
Unknown
Altitude
Unknown
Speed
Unknown
Apparent Right ascension
Unknown
Apparent Declination
Unknown
Sunlit
N/A
Visualization observer readout
Local Sidereal Time
07:12:00
Azimuth
Unknown
Elevation
Unknown
Doppler factor
Unknown
Orbital elements
Apogee altitude
463.71 km
Perigee altitude
462.181 km
Semi-major axis
6,841.082 km
Eccentricity
0.00011
Inclination
53.1597°
RAAN
332.7863°
Arg. of periapsis
82.3382°
True anomaly
277.76211°
Mean anomaly
277.7748°
Eccentric anomaly
277.76845°
Mean motion
3.8358 °/min
Orbital period
93.85 mins
BSTAR
0.00058857
Loading maneuver chart data...
Computing Atmospheric mass density...
Loading historical data...
Loading historical data...
Loading historical data...
Loading historical data...
Loading historical data...
Loading historical data...
Loading historical data...

Documentation

Showing up to 5 results
|